Tracking 18852 objects as of 23-Nov-2017
HD Live streaming from Space Station
objects crossing your sky now

FENGYUN 1C DEB

Track FENGYUN 1C DEB now!
10-day predictions


NORAD ID: 37036
Int'l Code: 1999-025EDU
Perigee: 804.2 km
Apogee: 991.1 km
Inclination: 99.0 °
Period: 102.8 minutes
Semi major axis: 7268 km
RCS: 0.0071 m2 (small)
Launch date: May 10, 1999
Source: People's Republic of China (PRC)
Launch site: Taiyaun Space Center, China (TSC)

Note: This is SATELLITE DEBRIS
aabbcc
Your satellite tracking list
Your tracking list is empty




NASA's NSSDC Master Catalog

Two Line Element Set (TLE):
1 37036U 99025EDU 17326.40328507 -.00000013  00000-0  19414-4 0  9990
2 37036  98.9670  21.2387 0128600 338.5712  21.0098 14.00947040516415
Source of the keplerian elements: AFSPC